www.pogodaiklimat.ru

Погода и климат >> Архив погоды >> Норвегия >> Карасйок


ПОГОДА в Карасйоке

  • Прогноз погоды в Карасйоке
  • Монитор погоды в Карасйоке

АРХИВ ПОГОДЫ в Карасйоке

Время (UTC), дата Ветер
(напр.,м/с)
 
Видим.   Явления Облачность Т
(С)
Тd
(С)
f
(%)
Тe
(С)
Тes
(С)
Комфортность P
(гПа)
Po
(гПа)
Тmin
(С)
Tmax
(С)
R
(мм)
R24
(мм)
S
(см)
04 9.09 З 1
{3}
н/о н/о +8.3 +8.0 98 +7 +7 1020.8 1004.8
05 9.09 ЮЗ 1
{3}
н/о н/о +9.5 +7.6 88 +9 +9 1020.9 1005.0
06 9.09 З 1
{3}
25 км 10/10 300 м
[Sc]
+9.9 +7.0 82 +9 +9 1021.1 1005.2 +7.8 +10.2
07 9.09 ЮЗ 2
{3}
н/о н/о +11.1 +6.9 75 +10 +10 1021.4 1005.5
08 9.09 З 2
{4}
н/о н/о +12.0 +6.9 71 +11 +11 1021.3 1005.5
09 9.09 ЮЗ 2
{4}
н/о н/о +14.6 +6.9 60 +14 +14 1021.3 1005.6
10 9.09 ЮЗ 3
{14}
н/о н/о +14.1 +6.7 61 +13 +13 1021.5 1005.8
11 9.09 З 2
{5}
н/о н/о +16.2 +7.7 57 +16 +16 1021.1 1005.5
12 9.09 З 1
{14}
25 км 8/4 1500 м
[Sc Ac trans]
+15.3 +8.1 62 +16 +17 1021.3 1005.7
13 9.09 З 1
{3}
н/о н/о +15.4 +8.2 62 +16 +16 1021.1 1005.5
14 9.09 штиль 0
{1}
н/о н/о +16.0 +8.3 60 +16 +16 1021.0 1005.4
15 9.09 Ю 1
{2}
н/о н/о +16.7 +8.4 58 +18 +18 1021.0 1005.4
16 9.09 Ю 1
{1}
н/о н/о +14.8 +9.4 70 +15 +15 1021.2 1005.5 0.1
17 9.09 ЮЗ 1
{4}
н/о н/о +13.2 +8.3 72 +13 +13 1021.5 1005.8
18 9.09 ЮЗ 1
{4}
30 км 6/0 2000 м
[Ac trans]
+11.1 +6.8 75 +11 +11 1022.2 1006.3 +9.9 +17.9
19 9.09 З 1
{3}
н/о н/о +8.8 +7.3 90 +8 +8 1022.4 1006.4
20 9.09 В 2
{4}
н/о н/о +7.9 +6.4 90 +6 +6 1022.5 1006.4
21 9.09 СВ 1
{3}
н/о н/о +6.7 +6.4 98 +5 +5 1022.7 1006.6
22 9.09 СВ 1
{2}
н/о н/о +6.7 +6.4 98 +5 +5 1022.7 1006.6
23 9.09 СВ 1
{2}
н/о н/о +6.7 +6.4 98 +5 +5 1022.6 1006.5
00 10.09 СВ 1
{4}
н/о н/о +6.4 +6.1 98 +5 +5 1022.5 1006.4
01 10.09 штиль 0
{2}
н/о н/о +5.9 +5.6 98 +5 +5 1022.5 1006.3
02 10.09 С 1
{2}
н/о н/о +4.9 +4.6 98 +3 +3 1022.0 1005.8
03 10.09 В 1
{1}
н/о н/о +4.9 +4.6 98 +3 +3 1021.8 1005.6
04 10.09 З 1
{2}
н/о н/о +4.5 +4.2 98 +3 +3 1021.7 1005.5
05 10.09 штиль 0
{2}
н/о н/о +5.0 +4.7 98 +4 +4 1021.4 1005.2
06 10.09 СВ 1
{3}
25 км 9/9 1500 м
[Sc]
+8.0 +7.7 98 +7 +7 1020.8 1004.8 +4.3 +11.1
07 10.09 В 3
{5}
н/о н/о +10.4 +8.5 88 +8 +8 1020.2 1004.3
08 10.09 Ю 5
{7}
н/о н/о +12.5 +7.4 71 +10 +10 1019.8 1004.0
09 10.09 ЮЗ 4
{9}
н/о н/о +15.5 +8.0 61 +15 +15 1018.8 1003.2
10 10.09 ЮЗ 4
{10}
н/о н/о +16.8 +8.5 58 +16 +16 1018.2 1002.7
11 10.09 ЮЗ 6
{10}
н/о н/о +17.0 +7.6 54 +16 +16 1018.0 1002.5
12 10.09 ЮЗ 5
{12}
>70 км ясно +15.6 +8.6 63 +14 +16 1018.1 1002.5
13 10.09 ЮЗ 3
{9}
н/о н/о +15.0 +10.4 74 +14 +14 1018.0 1002.4
14 10.09 ЮЗ 2
{5}
н/о н/о +15.3 +10.9 75 +15 +15 1017.4 1001.8
15 10.09 ЮЗ 4
{9}
н/о н/о +15.8 +11.2 74 +15 +15 1016.9 1001.4
16 10.09 ЮЗ 4
{9}
н/о н/о +15.6 +11.4 76 +15 +15 1016.1 1000.6
17 10.09 Ю 4
{8}
н/о н/о +14.8 +11.4 80 +14 +14 1016.2 1000.6
18 10.09 ЮЗ 3
{9}
н/о н/о +13.6 +11.7 88 +12 +12 1016.3 1000.6 +8.0 +17.4
19 10.09 Ю 4
{9}
н/о н/о +13.6 +11.3 86 +12 +12 1016.1 1000.4
20 10.09 Ю 5
{8}
н/о н/о +13.6 +11.3 86 +12 +12 1015.5 999.9
21 10.09 Ю 2
{7}
н/о н/о +13.8 +11.2 84 +13 +13 1015.2 999.6
22 10.09 Ю 3
{7}
н/о н/о +13.7 +11.2 85 +13 +13 1014.8 999.2
23 10.09 Ю 3
{7}
н/о н/о +13.6 +11.3 86 +12 +12 1014.6 999.0
00 11.09 Ю 3
{9}
н/о н/о +13.6 +12.0 90 +12 +12 1014.2 998.6
01 11.09 ЮВ 1
{6}
н/о н/о +13.6 +12.5 93 +14 +14 1013.6 998.0
02 11.09 Ю 3
{6}
н/о н/о +13.9 +12.5 91 +13 +13 1013.0 997.4
03 11.09 Ю 5
{9}
н/о н/о +13.9 +12.6 92 +12 +12 1012.4 996.8
04 11.09 Ю 3
{7}
н/о н/о +14.0 +12.4 90 +13 +13 1012.1 996.5
05 11.09 Ю 3
{7}
н/о н/о +14.3 +12.5 89 +13 +13 1011.8 996.3
06 11.09 Ю 4
{9}
25 км 10/10 1500 м
[Sc]
+14.7 +12.7 88 +13 +13 1011.4 995.9 +13.3 +14.7
07 11.09 Ю 4
{8}
н/о н/о +15.1 +12.2 83 +14 +14 1011.1 995.6
08 11.09 Ю 4
{9}
н/о н/о +15.3 +12.3 82 +14 +14 1011.1 995.6
09 11.09 ЮЗ 3
{10}
н/о н/о +15.3 +12.8 85 +15 +15 1010.9 995.4
10 11.09 ЮЗ 3
{8}
н/о н/о +15.9 +13.4 85 +15 +15 1010.8 995.4
11 11.09 ЮЗ 3
{9}
н/о н/о +16.8 +13.1 79 +17 +17 1010.0 994.6
12 11.09 Ю 3
{10}
25 км 10/10 1500 м
[Sc]
+16.1 +13.4 84 +16 +16 1010.0 994.6
13 11.09 ЮЗ 2
{7}
н/о н/о +16.0 +12.9 82 +16 +16 1009.5 994.1
14 11.09 Ю 3
{6}
н/о н/о +16.1 +12.5 79 +16 +16 1008.9 993.5
15 11.09 Ю 2
{6}
н/о н/о +15.9 +12.5 80 +16 +16 1008.3 992.9
16 11.09 В 1
{5}
н/о н/о +14.9 +13.3 90 +15 +15 1007.4 992.0
17 11.09 В 1
{3}
н/о н/о +13.0 +12.7 98 +13 +13 1006.8 991.3
18 11.09 В 2
{7}
>70 км ясно +13.5 +13.2 98 +13 +13 1005.9 990.4 +12.8 +16.9 0.1
19 11.09 В 3
{6}
н/о н/о +12.7 +12.4 98 +11 +11 1004.9 989.4
20 11.09 В 1
{5}
н/о н/о +12.5 +12.2 98 +12 +12 1004.6 989.1
21 11.09 СВ 2
{4}
н/о н/о +12.7 +12.4 98 +12 +12 1003.9 988.4
22 11.09 Ю 3
{6}
н/о н/о +13.1 +12.3 95 +12 +12 1003.3 987.8
23 11.09 ЮВ 2
{6}
н/о н/о +13.6 +12.5 93 +13 +13 1002.5 987.1
00 12.09 СВ 2
{6}
н/о н/о +11.9 +11.6 98 +11 +11 1002.4 986.9
01 12.09 Ю 3
{5}
н/о н/о +12.6 +12.3 98 +11 +11 1002.1 986.6
02 12.09 В 2
{4}
н/о н/о +12.3 +12.0 98 +11 +11 1001.6 986.1
03 12.09 В 2
{5}
н/о н/о +12.8 +12.5 98 +12 +12 1001.0 985.5
04 12.09 ЮВ 2
{7}
н/о н/о +13.0 +12.7 98 +12 +12 1000.5 985.1
05 12.09 Ю 2
{4}
н/о н/о +13.3 +13.0 98 +12 +12 1000.2 984.8
06 12.09 ЮВ 1
{7}
5000 м слаб. морось 10/10 600 м
[St]
+13.2 +12.9 98 +13 +13 999.7 984.3 +11.3 +13.8
07 12.09 ЮВ 1
{4}
н/о н/о +13.8 +13.5 98 +14 +14 999.2 983.8
08 12.09 Ю 2
{7}
н/о н/о +14.2 +12.6 90 +14 +14 998.7 983.4
09 12.09 Ю 4
{7}
н/о н/о +14.3 +12.3 88 +13 +13 998.5 983.2
10 12.09 Ю 3
{7}
н/о н/о +14.3 +13.8 97 +13 +13 998.1 982.8 0.1
11 12.09 Ю 3
{7}
н/о н/о +14.8 +12.7 87 +14 +14 997.7 982.4
12 12.09 ЮВ 3
{8}
25 км 10/10 1500 м
[Sc]
+15.0 +12.0 82 +14 +14 997.1 981.8 0.1
13 12.09 ЮВ 3
{6}
н/о н/о +13.6 +13.3 98 +12 +12 996.6 981.3 0.6
14 12.09 ЮВ 2
{5}
н/о н/о +14.6 +14.3 98 +14 +14 995.9 980.6 0.1
15 12.09 Ю 3
{6}
н/о н/о +13.9 +13.6 98 +13 +13 995.6 980.3
16 12.09 Ю 2
{5}
н/о н/о +13.0 +12.7 98 +12 +12 995.3 979.9 0.2
17 12.09 СВ 1
{5}
н/о н/о +12.2 +11.9 98 +12 +12 994.8 979.4 1
18 12.09 СВ 1
{6}
н/о н/о +11.8 +11.5 98 +12 +12 994.0 978.6 +15.6 7
19 12.09 ЮЗ 1
{2}
н/о н/о +11.4 +11.1 98 +11 +11 993.7 978.3 3
20 12.09 ЮЗ 3
{4}
н/о н/о +11.0 +10.7 98 +9 +9 993.7 978.3
21 12.09 ЮЗ 2
{4}
н/о н/о +10.2 +9.9 98 +9 +9 993.9 978.4
22 12.09 ЮЗ 3
{5}
н/о н/о +10.1 +9.8 98 +8 +8 994.1 978.6 0.1
23 12.09 З 4
{8}
н/о н/о +9.1 +8.8 98 +6 +6 994.9 979.3 0.3
00 13.09 З 2
{8}
н/о н/о +8.8 +7.9 94 +7 +7 995.6 980.0 0.1
01 13.09 СЗ 3
{7}
н/о н/о +8.1 +7.5 96 +5 +5 996.0 980.4 0.3
02 13.09 Ю 1
{6}
н/о н/о +7.8 +7.5 98 +7 +7 996.2 980.6 0.3
03 13.09 З 1
{2}
н/о н/о +7.1 +6.8 98 +6 +6 996.4 980.7 0.1
04 13.09 ЮЗ 1
{3}
н/о н/о +7.0 +6.7 98 +6 +6 996.7 981.0 0.1
05 13.09 З 2
{4}
н/о н/о +7.0 +6.7 98 +5 +5 996.7 981.0
06 13.09 З 1
{7}
20 км 8/8 1500 м
[Sc]
+8.0 +7.7 98 +7 +7 997.0 981.3 +6.8 +11.8 4
07 13.09 ЮЗ 2
{4}
н/о н/о +9.0 +8.7 98 +7 +7 997.1 981.5
08 13.09 ЮЗ 3
{5}
н/о н/о +9.7 +8.8 94 +7 +7 997.4 981.8
09 13.09 З 2
{5}
н/о н/о +9.1 +8.8 98 +7 +7 997.9 982.3 0.5
10 13.09 СЗ 3 н/о н/о +9.8 +7.9 88 +7 +7 998.3 982.7
11 13.09 З 2 н/о н/о +10.4 +6.7 78 +9 +9 998.8 983.2
12 13.09 СЗ 1
{8}
5000 м слаб. морось 10/10 600 м
[St]
+10.8 +6.0 72 +11 +11 999.1 983.6 0.5
13 13.09 СЗ 4 н/о н/о +9.5 +5.3 75 +7 +7 1000.0 984.4
14 13.09 СЗ 1 н/о н/о +11.0 +6.6 74 +11 +11 999.9 984.4
15 13.09 СЗ 2 н/о н/о +9.6 +4.6 71 +8 +8 1000.4 984.8
16 13.09 СЗ 2 н/о н/о +8.2 +5.3 82 +6 +6 1001.4 985.7 0.1
17 13.09 н/о н/о
18 13.09 З 2
{7}
5000 м слаб. морось {дождь} 10/10 600 м
[St]
+6.6 +3.8 82 +4 +4 1002.5 986.7 +11.0 0.6
19 13.09 З 2 н/о н/о +5.8 +4.1 89 +3 +3 1003.1 987.2
20 13.09 З 2 н/о н/о +6.2 +3.9 85 +4 +4 1003.5 987.6
21 13.09 З 3 н/о н/о +4.0 +3.7 98 0 0 1004.0 988.0
22 13.09 З 2 н/о н/о +2.8 +2.5 98 -1 -1 1004.6 988.5
23 13.09 ЮЗ 2 н/о н/о +2.8 +2.5 98 -1 -1 1004.8 988.7
00 14.09 ЮЗ 1
{5}
н/о н/о +2.1 +1.8 98 0 0 1005.3 989.2
01 14.09 З 1
{3}
н/о н/о +1.3 +1.0 98 -1 -1 1005.8 989.6
02 14.09 З 2
{3}
н/о н/о +1.0 +0.7 98 -3 -3 1006.1 989.9
03 14.09 Ю 1 н/о н/о +0.7 +0.4 98 -1 -1 1006.4 990.2
04 14.09 СВ 1
{2}
н/о н/о -0.3 -0.5 99 -3 -3 1006.7 990.4
05 14.09 В 2
{3}
н/о н/о +0.7 +0.4 98 -3 -3 1006.8 990.6
06 14.09 В 1
{4}
>70 км ясно +2.8 +2.5 98 +1 +2 1007.0 990.9 -0.4 +6.6
07 14.09 ЮВ 1 н/о н/о +4.9 +4.6 98 +3 +3 1006.9 990.9
08 14.09 ЮЗ 2
{4}
н/о н/о +7.8 +4.2 78 +6 +6 1006.8 991.0
09 14.09 Ю 3
{5}
н/о н/о +9.1 +3.3 67 +7 +7 1007.0 991.2
10 14.09 ЮЗ 1
{5}
н/о н/о +10.6 +1.7 54 +11 +11 1007.1 991.4
11 14.09 ЮЗ 1
{4}
н/о н/о +9.8 +1.2 55 +10 +10 1007.2 991.5
12 14.09 З 2
{6}
20 км 4/4 1500 м
[Cu med, cong]
+9.8 +1.0 54 +9 +10 1007.4 991.7
13 14.09 ЮЗ 1
{5}
н/о н/о +11.2 0.0 46 +11 +11 1007.3 991.7
14 14.09 ЮЗ 2
{4}
н/о н/о +11.0 -1.1 43 +10 +10 1007.5 991.8
15 14.09 З 1
{3}
н/о н/о +9.2 +0.9 56 +9 +9 1007.4 991.6
16 14.09
{1}
н/о н/о +7.2 +2.5 72 1007.3 991.4
17 14.09 В 1
{2}
н/о н/о +3.3 +2.7 96 +2 +2 1007.3 991.2
18 14.09 В 2
{5}
>70 км ясно +1.3 +1.0 98 -2 -2 1007.2 991.0 +1.3 +11.3
19 14.09 штиль 0
{2}
н/о н/о -0.3 -0.5 99 -2 -2 1007.2 990.9
20 14.09 штиль 0
{2}
н/о н/о -0.4 -0.6 99 -2 -2 1007.0 990.7
21 14.09 штиль 0
{2}
н/о н/о -1.6 -1.8 99 -3 -3 1006.7 990.3
22 14.09 Ю 1
{2}
н/о н/о -2.0 -2.2 99 -4 -4 1006.6 990.2
23 14.09 С 1
{1}
н/о н/о -2.8 -3.0 99 -5 -5 1006.1 989.7
00 15.09 штиль 0
{2}
н/о н/о -2.8 -3.0 99 -4 -4 1005.8 989.4
01 15.09 штиль 0
{1}
н/о н/о -3.2 -3.4 99 -5 -5 1005.5 989.1
02 15.09 штиль 0
{1}
н/о н/о -3.6 -3.8 99 -5 -5 1004.7 988.3
03 15.09 СВ 1
{2}
н/о н/о -4.1 -4.3 99 -7 -7 1004.1 987.6
04 15.09 СВ 1
{2}
н/о н/о -3.2 -3.4 99 -6 -6 1003.5 987.1
05 15.09 СВ 2
{3}
н/о н/о -1.6 -1.8 99 -6 -6 1003.0 986.7
06 15.09 СВ 2
{3}
>70 км ясно -0.1 -0.3 99 -4 -3 1002.3 986.1 -4.2 +1.4
07 15.09 СВ 2
{4}
н/о н/о +2.8 +2.5 98 -1 -1 1001.5 985.5
08 15.09
{5}
н/о н/о +5.3 +3.2 86 1001.0 985.1
09 15.09 В 2
{5}
н/о н/о +6.8 +2.7 75 +5 +5 1000.3 984.5
10 15.09 В 3
{5}
н/о н/о +8.3 +3.0 69 +6 +6 999.7 984.0
11 15.09 ЮВ 3 н/о н/о +10.1 +0.7 52 +8 +8 999.2 983.6
12 15.09 В 4
{8}
25 км 4/4 1500 м
[Cu med, cong]
+9.2 -0.1 52 +7 +8 999.1 983.5
13 15.09 В 4
{7}
н/о н/о +9.1 -1.3 48 +7 +7 998.8 983.2
14 15.09 В 3
{6}
н/о н/о +8.3 -1.7 49 +6 +6 998.8 983.1
15 15.09 В 3
{6}
н/о н/о +8.3 -1.7 49 +6 +6 998.6 982.9
16 15.09 В 2
{6}
н/о н/о +6.7 -1.2 57 +5 +5 998.7 982.9
17 15.09 В 1
{3}
н/о н/о +3.4 0.0 78 +2 +2 998.7 982.8
18 15.09 В 1
{7}
>70 км ясно +1.5 -0.4 87 -0 -0 998.9 982.8 -0.1 +10.1
19 15.09 З 1
{2}
н/о н/о -1.1 -1.3 99 -3 -3 999.1 982.9
20 15.09 ЮЗ 2
{3}
н/о н/о -1.7 -1.9 99 -6 -6 999.3 983.1
21 15.09 З 1
{3}
н/о н/о -2.4 -2.6 99 -5 -5 999.4 983.1
22 15.09 ЮЗ 2
{3}
н/о н/о -2.5 -2.7 99 -7 -7 999.4 983.1
23 15.09 ЮЗ 1
{2}
н/о н/о -2.2 -2.4 99 -5 -5 999.2 982.9
00 16.09 Ю 1
{3}
н/о н/о -1.6 -1.8 99 -4 -4 999.0 982.8
01 16.09 ЮЗ 2
{4}
н/о н/о -0.8 -1.0 99 -5 -5 998.7 982.5 0.1
02 16.09 ЮЗ 2
{3}
н/о н/о +0.1 -0.2 98 -4 -4 998.4 982.3 0.2
03 16.09 Ю 2
{4}
н/о н/о +1.8 +1.5 98 -2 -2 997.9 981.9 0.3

 

Местоположение метеостанции Карасйок (Норвегия): широта 69.56 долгота 25.50 высота над уровнем моря 131 м.

В архиве по умолчанию представлена погода в Карасйоке за последнюю неделю. Архивные данные за месяц целиком и за предыдущие месяцы, начиная с января 2011 года, Вы можете получить, выбрав интересующий диапазон дат из раскрывающегося списка и нажав кнопку "Ввод!".


*Определитесь, кто Вы:
робот инопланетянин человек

Внимание! Время в таблицах - всемирное. Для получения местного времени необходимо прибавить поправку, которая равна 1 ч.

Смотрите также архив погоды в соседних городах и на ближайших метеорологических станциях:

Погода в Искорасе (Норвегия) (30 км)
Погода в Суовддатмохкки (Норвегия) (47 км)
Погода в Банаке (Норвегия) (59 км)
Погода в Утсйоки Кево (Финляндия) (62 км)
Погода в Утсёки Кево Кеволярви (Финляндия) (62 км)
Погода в Инари Анджели (Финляндия) (74 км)
Погода в Суоловуопми-Лулит (Норвегия) (77 км)
Погода в Кааманене (Финляндия) (84 км)
Погода в Альта аэропорту (Норвегия) (95 км)
Погода на Острове Сеиталасса (Финляндия) (105 км)

Пояснения к столбцам:

Ветер - указаны скорость ветра в м/с - средняя за 10 мин, порывы в срок и между сроками (в фигурных скобках) и направление, откуда дует ветер: С - северный, СВ - северо-восточный, В - восточный, ЮВ - юго-восточный, Ю - южный, ЮЗ - юго-западный, З - западный, СЗ - северо-западный.
Видимость - горизонтальная дальность видимости в метрах или километрах. При видимости от 1 до 10 км при отсутствии осадков обычно наблюдается дымка, при ухудшении видимости до 1 км и менее - туман. В сухую погоду видимость может ухудшаться дымом, пылью или мглою.
Явления - указаны атмосферные явления, наблюдавшиеся в срок или в последний час перед сроком; фигурными скобками обозначены явления, наблюдавшиеся между сроками (за 1-3 часа до срока); квадратными скобками обозначены град или гололедные отложения с указанием их диаметра в мм.
Облачность - указаны через наклонную черту общая и нижняя облачность в баллах и высота нижней границы облаков в метрах; квадратными скобками обозначены формы облаков: Ci - перистые, Cs - перисто-слоистые, Cc - перисто-кучевые, Ac - высококучевые, As - высокослоистые, Sc - слоисто-кучевые, Ns - слоисто-дождевые, Cu - кучевые, Cb - кучево-дождевые. Подробнее классификацию облаков см. в Атласе облаков (PDF).
T - Температура воздуха - температура, измеренная на высоте 2 м над землей.
Td - Температура точки росы - температура, при понижении до которой содержащийся в воздухе водяной пар достигнет насыщения.
f - Относительная влажность воздуха - влажноcть воздуха, измеренная на высоте 2 м над землей.
Te - Эффективная температура - температура, которую ощущает одетый по сезону человек в тени. Характеристика душности погоды. При расчете учитывается влияние влажности воздуха и скорости ветра на теплоощущения человека.
Tes - Эффективная температура на солнце - температура, которую ощущает человек, с поправкой на солнечный нагрев. Характеристика знойности погоды. Зависит от высоты солнца над горизонтом, облачности и скорости ветра. Ночью, в пасмурную погоду, а также при ветре 12 м/с и более поправка равна нулю.
P - Атмосферное давление - приведенное к уровню моря атмосферное давление.
Po - Атмосферное давление - измеренное на уровне метеостанции атмосферное давление.
Tmin - Минимальная температура - минимум температуры воздуха на высоте 2 м над землей.
Tmax - Максимальная температура - максимум температуры воздуха на высоте 2 м над землей.
R - Количество осадков - Количество выпавших осадков за период времени, мм. При наведении курсора мыши на число - период времени, за который выпало указанное количество осадков.
R24 - Количество осадков - Количество выпавших осадков за 24 часа, мм.
S - Снежный покров - Высота снежного покрова, см. При наведении курсора мыши на число - состояние снежного покрова и степень покрытия местности в баллах.